OneWeb SL0558

operational
NORAD ID: 56059 Int'l Des: 2023-043 Owner: ONEWEBN Country: UK Constellation: oneweb
LEOCIRCULARPOLARONEWEB_TYPE

About OneWeb SL0558

Description loading...

Live Position

Loading 3D Globe...

Upcoming Passes

Altitude History

Altitude vs Time

uPlot chart will show altitude changes over time

Two-Line Element Set

1 56059U 23043P 25348.82035618 -.00000041 00000-0 -13048-3 0 9998
2 56059 87.9222 280.7570 0001876 60.7057 299.4265 13.21824598133886
Epoch: Dec 14, 2025 • Age: 21 hours

Current Status

Altitude 1204.4 km
Velocity 7.25 km/s
Sub-Earth Point -68.32°S, 66.4°W
Launch Date Mar 26, 2023
Age 2.7 years
Type internet

Technical Details

Classification Payload
Mass 148.00 kg
Dry Mass 140.00 kg
Total Mass 148.00 kg
Length 1.30 m
Diameter 1.00 m
Span 5.00 m
Shape Trapezoid+2 pan
Manufacturer ONEWUS
Bus Type ARROW
Phase Status In Orbit
Owner/State ONEWEBN/UK

Large Constellations

Loading constellations...